STARLINK-33781, 63826

Orbit data source: Space-Track

STARLINK-33781, 63826 is a payload satellite owned by SpaceX/Seattle (US) in LEO that was launched on Sun, 04 May 2025 UTC via an FALCON 9 launch vehicle from the Air Force Eastern Test Range (AFETR). Payload-class satellites include a variety of spacecraft equipped with specific instruments for various scientific and technological missions. These include communications satellites like Starlink; space stations such as the ISS; scientific satellites like the Hubble; Earth observation satellites from companies like Planet Labs, Umbra, and HawkEye 360; GPS; miniature CubeSats for education and research; and military/defense satellites.

Loading next visibility...
Identifier
63826, 2025-092Y
Orbit
LEO
Country
Flag of USUS
Related business
Manufacturer
SpaceX/Seattle
Mission
Operational Commercial Communications
Bus & Motor
STARLINK V2MO, Unknown motor
Mass
575 kg wet, ~530 kg dry
Launch date (UTC)
2025-05-04 (9 months ago)
Launch vehicle
FALCON 9
Launch site
Air Force Eastern Test Range (AFETR)
Object type
Payload
Rocket body
Debris
Shape & HBR
Box + 2 Pan, 17.7 m
Radar Cross Section
36.964 m², Large (>1 m²)

Expand to show TLE details & history
Last TLE update: 12 hours ago

TLE from 12 hours ago
0 STARLINK-33781
1 63826U 25092Y   26034.63976828  .00017139  00000-0  63025-3 0  9997
2 63826  43.0035   5.1411 0000837 253.2269 106.8491 15.27613644 43455
Epoch: 2026-02-03T15:21Z
TLE epoch observation values (Epoch: 2026-02-03T15:21:15.979Z)
Latitude
-0.00001°
Longitude
1.0067°
Altitude
482.891 km
Speed
7.626 km/s
True Right ascension
00h 20m 33s
True Declination
0° 00' 00"
Sunlit
Object was in daylight at epoch
Visualization orbit readout
Latitude
Unknown
Longitude
Unknown
Altitude
Unknown
Speed
Unknown
Apparent Right ascension
Unknown
Apparent Declination
Unknown
Sunlit
N/A
Visualization observer readout
Local Sidereal Time
05:39:59
Azimuth
Unknown
Elevation
Unknown
Doppler factor
Unknown
Orbital elements
Apogee altitude
485.467 km
Perigee altitude
484.319 km
Semi-major axis
6,863.03 km
Eccentricity
0.00008
Inclination
43.0035°
RAAN
5.1411°
Arg. of periapsis
253.2269°
True anomaly
106.85828°
Mean anomaly
106.8491°
Eccentric anomaly
106.85369°
Mean motion
3.81741 °/min
Orbital period
94.3 mins
BSTAR
0.00063025
Loading maneuver chart data...
Computing Atmospheric mass density...
Loading historical data...
Loading historical data...
Loading historical data...
Loading historical data...
Loading historical data...
Loading historical data...
Loading historical data...

Documentation

Showing up to 5 results
|